STARLINK-2740 (48690 NORAD) Tracking and Keplerian Element Data

This shows tracking and keplerian element data for the satellite.

Feedback or suggestion? Click here.




ElementValue
Catalog48690
NameSTARLINK-2740
Epoch Orbit173
Epoch Day170.58334491
Epoch Year2021
RAAN306.2423
Inclination53.0483
Eccentricity0.0001227
Argument of Perigee46.5932
Mean Anonmoly87.1503
Mean Motion15.73238194
Decay Rate-6.162E-05
L11 48690U 21044BE 21170.58334491 -.00006162 00000-0 -39444-4 0 9991
L22 48690 53.0483 306.2423 0001227 46.5932 87.1503 15.73238194 1731

Live tracking and technical data element details for STARLINK-2740 (NORAD 48690). STARLINK-2740 can be tracked NOW for your location showing map with azimuth and elevation plus other details from your city location.

Track the satellite on the map from your city or location and see movement details for azimuth, elevation, latitude, longitude, range, height, and movement on the map or in text.







IsCatalogInMostPopularTable: catalog: 48690, numindb: 4
Update: records affected: 1



GetName: 48690 STARLINK-2740

Hit Count: updated at: Mon, 21 Jun 2021 04:52:42 GMT